[[{"header":{"parameterUnit":"m.s-1","parameterCategory":1,"la1":30.2991,"la2":30.254,"lo1":-89.0895,"lo2":-89.0444,"dy":0.0017,"dx":0.0017,"nx":28,"ny":28,"refTime":"2023-09-03T09:00:00:Z","depth":0,"parameterNumber":2,"parameterNumberName":"U-component_of_WINDS"},"data":[0,0,0,0,0,0,0,0,0,0,0,0,0,0,0,0,0,0,0,0,0,0,0,0,0,0,0,0,0,0,0,0,0,0,0,0,0,0,0,0,0,0,0,0,0,0,0,0,0,0,0,0,0,0,0,0,0,0,-3.2158,-3.2159,0,-3.2247,-3.2248,-3.2249,-3.2232,-3.223,-3.2229,-3.2227,-3.2317,-3.2321,-3.2325,0,0,0,0,0,0,0,0,0,0,0,0,0,-3.1974,-3.1977,-3.2158,-3.2159,-3.216,-3.2247,-3.2248,-3.2249,-3.2232,-3.223,-3.2228,-3.2226,-3.2316,-3.2321,-3.2325,0,0,0,0,0,0,0,0,0,0,0,0,0,-3.2057,-3.1978,-3.2158,-3.2162,-3.2164,-3.2246,-3.2248,-3.2249,-3.2232,-3.223,-3.2228,-3.2225,-3.2314,-3.232,-3.2326,-3.241,0,0,-3.2344,-3.2346,0,0,0,0,0,0,0,0,-3.2052,-3.2064,-3.2161,-3.2162,-3.2164,-3.2226,-3.2216,-3.2303,-3.2233,-3.2206,-3.2227,-3.2224,-3.2289,-3.2297,-3.2318,-3.2414,-3.2418,-3.2344,-3.2348,-3.235,-3.2352,0,0,0,0,0,0,0,-3.2047,-3.206,-3.2193,-3.2162,-3.2164,-3.216,-3.2169,-3.2232,-3.226,-3.2208,-3.2207,-3.2218,-3.2289,-3.2313,-3.232,-3.2419,-3.2344,-3.2349,-3.2353,-3.2355,-3.2587,-3.2589,0,0,0,0,0,0,-3.2039,-3.2055,-3.219,-3.2196,-3.2101,-3.2165,-3.2175,-3.2208,-3.2259,-3.2265,-3.222,-3.2217,-3.2304,-3.2314,-3.2323,-3.2424,-3.235,-3.2356,-3.2359,-3.2584,-3.2588,-3.259,0,0,0,0,0,0,-3.2036,-3.2052,-3.2187,-3.2125,-3.2142,-3.2171,-3.2208,-3.2211,-3.2235,-3.2268,-3.2273,-3.2239,-3.2302,-3.2315,-3.2388,-3.2427,-3.2358,-3.2364,-3.2581,-3.2585,-3.2589,-3.2626,0,0,0,0,0,0,-3.203,-3.205,-3.2083,-3.2126,-3.2146,-3.225,-3.221,-3.2215,-3.2245,-3.2242,-3.2287,-3.2292,-3.2302,-3.238,-3.2394,-3.2434,-3.2368,-3.2578,-3.2583,-3.2588,-3.2621,-3.2631,-3.2639,0,0,0,0,0,-3.2024,-3.209,-3.2084,-3.2101,-3.2187,-3.2253,-3.2264,-3.2273,-3.2248,-3.2281,-3.2302,-3.2291,-3.2421,-3.2387,-3.2403,-3.2445,-3.2575,-3.2582,-3.2587,-3.2617,-3.2629,-3.2639,0,0,0,0,0,0,-3.205,-3.2096,-3.209,-3.2172,-3.2209,-3.225,-3.2291,-3.2285,-3.2329,-3.2324,-3.2334,-3.2345,-3.2418,-3.2439,-3.2401,-3.2528,-3.2494,-3.2504,-3.2512,-3.2523,-3.2531,-3.2524,-3.2373,0,0,0,0,0,-3.2066,-3.2116,-3.2153,-3.2222,-3.224,-3.2263,-3.2292,-3.2296,-3.2334,-3.2349,-3.2376,-3.2413,-3.2462,-3.2494,-3.2541,-3.2625,-3.2634,-3.2662,-3.267,-3.2677,-3.2685,-3.2729,-3.2742,-3.261,-3.261,-3.261,0,0,-3.2098,-3.2129,-3.216,-3.2228,-3.2256,-3.2307,-3.2276,-3.2331,-3.2369,-3.2358,-3.2427,-3.2448,-3.2491,-3.2569,-3.2605,-3.2589,-3.2723,-3.2685,-3.269,-3.2694,-3.2737,-3.2749,-3.276,-3.2614,-3.2613,-3.2613,0,0,-3.2182,-3.2212,-3.2271,-3.2301,-3.2345,-3.2359,-3.2373,-3.2415,-3.2429,-3.2499,-3.2491,-3.2536,-3.2621,-3.2651,-3.2677,-3.2773,-3.2764,-3.2788,-3.2833,-3.2876,-3.2886,-3.2895,-3.2928,-3.294,-3.2796,-3.2796,-3.2796,0,-3.2217,-3.2294,-3.2303,-3.2359,-3.2389,-3.2381,-3.2441,-3.2469,-3.2526,-3.2546,-3.2528,-3.2633,-3.2661,-3.2746,-3.2769,-3.2791,-3.2807,-3.2782,-3.2884,-3.2893,-3.2902,-3.2933,-3.2946,-3.2798,-3.2798,-3.2798,-3.2798,0,-3.2333,-3.2386,-3.243,-3.2484,-3.2519,-3.2577,-3.2595,-3.2628,-3.263,-3.2646,-3.2717,-3.2751,-3.2804,-3.2825,-3.2827,-3.2909,-3.2898,-3.2882,-3.2847,-3.2917,-3.2946,-3.2959,-3.2802,-3.2801,-3.28,-3.28,0,0,-3.2436,-3.2495,-3.2511,-3.2535,-3.2582,-3.2624,-3.2681,-3.2733,-3.2761,-3.2801,-3.2848,-3.292,-3.2905,-3.2935,-3.294,-3.2979,-3.305,-3.2958,-3.2959,-3.2972,-3.3142,-3.3153,-3.3166,-3.3045,-3.3048,-3.305,-3.3138,0,-3.2524,-3.2625,-3.2635,-3.2725,-3.2774,-3.2767,-3.2817,-3.2851,-3.2868,-3.2911,-3.293,-3.298,-3.2957,-3.2975,-3.3013,-3.3034,-3.3084,-3.3028,-3.3089,-3.3091,-3.3077,-3.3182,-3.3194,-3.3275,-3.315,-3.3152,-3.3153,0,-3.264,-3.2682,-3.2777,-3.2817,-3.2837,-3.2882,-3.293,-3.2972,-3.301,-3.302,-3.3053,-3.3053,-3.3112,-3.3076,-3.3156,-3.3118,-3.3143,-3.3157,-3.3161,-3.3166,-3.3125,-3.3188,-3.3302,-3.3314,-3.3172,-3.317,-3.3169,0,-3.2703,-3.2784,-3.2851,-3.2872,-3.2921,-3.2952,-3.2974,-3.301,-3.304,-3.3082,-3.3102,-3.315,-3.3176,-3.3213,-3.3226,-3.3199,-3.3305,-3.3271,-3.3314,-3.3314,-3.3335,-3.3333,-3.3453,-3.3355,-3.3354,-3.3354,-3.3354,0,-3.2799,-3.2857,-3.288,-3.2921,-3.2986,-3.2997,-3.306,-3.308,-3.3112,-3.3157,-3.3155,-3.3196,-3.3211,-3.3256,-3.3266,-3.333,-3.3342,-3.3351,-3.3353,-3.335,-3.3349,-3.3366,-3.336,-3.3358,-3.3357,-3.3356,-3.3356,0,-3.2881,-3.2899,-3.2971,-3.3011,-3.3022,-3.3068,-3.3102,-3.3141,-3.3157,-3.3213,-3.3227,-3.3252,-3.3304,-3.3321,-3.3384,-3.3391,-3.3465,-3.3463,-3.3452,-3.3451,-3.3492,-3.3488,-3.3626,-3.3644,-3.3535,-3.3536,-3.3537,0,-3.294,-3.2984,-3.3029,-3.3058,-3.3081,-3.3129,-3.3159,-3.3172,-3.3204,-3.325,-3.3284,-3.3335,-3.3377,-3.346,-3.3483,-3.3531,-3.3529,-3.3574,-3.3536,-3.3532,-3.3528,-3.3524,-3.3528,-3.3581,-3.3582,-3.3583,-3.3584,0,-3.3043,-3.305,-3.3094,-3.3141,-3.3177,-3.3215,-3.3252,-3.3276,-3.3293,-3.3329,-3.3382,-3.3414,-3.3478,-3.3528,-3.3577,-3.3599,-3.3594,-3.3596,-3.3608,-3.3605,-3.3596,-3.36,-3.3469,-3.3592,-3.3591,-3.3591,-3.359,-3.359,-3.3115,-3.3153,-3.319,-3.3239,-3.3267,-3.3301,-3.334,-3.336,-3.3405,-3.3457,-3.3462,-3.3518,-3.3555,-3.362,-3.3644,-3.3688,-3.3675,-3.3693,-3.3697,-3.3701,-3.3704,-3.359,-3.3697,-3.3697,-3.3697,-3.3697,-3.3697,0,-3.3216,-3.3239,-3.3284,-3.3335,-3.3373,-3.3365,-3.3405,-3.3438,-3.3487,-3.3522,-3.3563,-3.3623,-3.3671,-3.3699,-3.3748,-3.3778,-3.3776,-3.379,-3.3787,-3.3792,-3.3713,-3.3697,-3.379,-3.379,-3.379,-3.379,-3.379,-3.379,-3.3273,-3.3337,-3.3348,-3.3426,-3.3449,-3.3504,-3.3527,-3.3558,-3.3586,-3.3653,-3.3693,-3.3711,-3.3742,-3.3793,-3.3837,-3.3844,-3.3862,-3.3876,-3.3881,-3.3807,-3.3797,-3.3788,-3.3773,-3.388,-3.388,-3.3956,-3.3957,-3.3957]},{"header":{"parameterUnit":"m.s-1","parameterCategory":1,"la1":30.2991,"la2":30.254,"lo1":-89.0895,"lo2":-89.0444,"dy":0.0017,"dx":0.0017,"nx":28,"ny":28,"refTime":"2023-09-03T09:00:00:Z","depth":0,"parameterNumber":3,"parameterNumberName":"V-component_of_WINDS"},"data":[0,0,0,0,0,0,0,0,0,0,0,0,0,0,0,0,0,0,0,0,0,0,0,0,0,0,0,0,0,0,0,0,0,0,0,0,0,0,0,0,0,0,0,0,0,0,0,0,0,0,0,0,0,0,0,0,0,0,3.7555,3.7555,0,3.7584,3.7584,3.7585,3.7536,3.7534,3.7533,3.7531,3.7559,3.7561,3.7563,0,0,0,0,0,0,0,0,0,0,0,0,0,3.7454,3.7456,3.7555,3.7555,3.7556,3.7584,3.7584,3.7585,3.7536,3.7534,3.7532,3.753,3.7558,3.7561,3.7564,0,0,0,0,0,0,0,0,0,0,0,0,0,3.7492,3.7457,3.7555,3.7535,3.7533,3.7584,3.7584,3.7585,3.7537,3.7534,3.7532,3.7529,3.7557,3.7561,3.7564,3.7635,0,0,3.7574,3.7576,0,0,0,0,0,0,0,0,3.749,3.7496,3.7537,3.7536,3.7535,3.7554,3.7559,3.7601,3.7537,3.7535,3.7531,3.7528,3.7559,3.7562,3.7573,3.7636,3.7637,3.7575,3.7577,3.7578,3.7579,0,0,0,0,0,0,0,3.7487,3.7494,3.7566,3.7538,3.7536,3.7523,3.7526,3.7567,3.7561,3.7535,3.7532,3.7536,3.7558,3.757,3.7573,3.7638,3.7575,3.7578,3.758,3.7581,3.7757,3.7759,0,0,0,0,0,0,3.7488,3.7492,3.7565,3.7567,3.7506,3.7527,3.753,3.755,3.756,3.7559,3.7538,3.7534,3.7565,3.7569,3.7574,3.7655,3.7578,3.7581,3.7583,3.7754,3.7757,3.776,0,0,0,0,0,0,3.7486,3.7495,3.7564,3.7529,3.7537,3.7532,3.7554,3.7552,3.7564,3.7562,3.7561,3.7552,3.7563,3.7569,3.7619,3.7655,3.7583,3.7586,3.7751,3.7755,3.7759,3.7819,0,0,0,0,0,0,3.7483,3.7494,3.7522,3.753,3.7539,3.761,3.7557,3.7554,3.757,3.7565,3.7575,3.7574,3.7562,3.7615,3.7623,3.7659,3.7589,3.7748,3.7753,3.7758,3.7814,3.7825,3.7834,0,0,0,0,0,3.748,3.7538,3.7523,3.7533,3.7573,3.7612,3.7617,3.7603,3.7573,3.76,3.7599,3.7573,3.7651,3.762,3.7629,3.7667,3.7745,3.7752,3.7757,3.7809,3.7822,3.7834,0,0,0,0,0,0,3.7534,3.7539,3.7523,3.7586,3.7599,3.7604,3.7637,3.7618,3.7639,3.7633,3.7614,3.7617,3.767,3.7674,3.7639,3.7734,3.7693,3.7701,3.7729,3.7742,3.7752,3.7749,3.7592,0,0,0,0,0,3.7553,3.7585,3.7587,3.7643,3.765,3.7643,3.7659,3.7647,3.766,3.7665,3.7668,3.768,3.7707,3.7725,3.775,3.7815,3.7815,3.7845,3.7855,3.7863,3.7869,3.7901,3.7914,3.778,3.778,3.7779,0,0,3.7593,3.76,3.7621,3.7654,3.7662,3.7694,3.7648,3.7685,3.7707,3.767,3.7717,3.772,3.7732,3.779,3.7815,3.7794,3.7907,3.7871,3.7877,3.7879,3.7909,3.7921,3.7933,3.7784,3.7783,3.7782,0,0,3.7682,3.7692,3.7737,3.7747,3.7761,3.7756,3.7767,3.7775,3.7775,3.7822,3.7794,3.7821,3.7868,3.7878,3.7889,3.798,3.7956,3.7989,3.804,3.8071,3.8082,3.8091,3.8121,3.8132,3.7996,3.7996,3.7996,0,3.773,3.7778,3.7763,3.7801,3.7815,3.7783,3.7828,3.7838,3.786,3.7869,3.7846,3.7904,3.791,3.7968,3.799,3.8001,3.8011,3.7986,3.8082,3.8091,3.8099,3.8127,3.8139,3.7999,3.7999,3.7999,3.7998,0,3.7834,3.7868,3.7903,3.7924,3.7942,3.7984,3.7974,3.7994,3.798,3.7977,3.8024,3.8031,3.8055,3.8068,3.8056,3.8124,3.811,3.8085,3.8043,3.8116,3.8142,3.8153,3.8005,3.8003,3.8002,3.8001,0,0,3.7958,3.7969,3.7982,3.799,3.8003,3.8028,3.8067,3.8091,3.8108,3.8124,3.8154,3.8195,3.8171,3.8184,3.8172,3.82,3.8268,3.817,3.817,3.8186,3.834,3.8357,3.837,3.8254,3.8256,3.8257,3.8338,0,3.8044,3.8111,3.8098,3.8164,3.8193,3.8163,3.8197,3.8208,3.8206,3.823,3.8227,3.8255,3.8223,3.823,3.8256,3.8254,3.8298,3.8249,3.828,3.8281,3.8275,3.8384,3.8403,3.8479,3.8349,3.835,3.8352,0,3.8153,3.8172,3.8241,3.8247,3.8258,3.8289,3.8309,3.8333,3.8344,3.834,3.8354,3.8336,3.8374,3.8333,3.8383,3.8349,3.8361,3.8362,3.8365,3.8365,3.8319,3.8385,3.8503,3.8513,3.8368,3.8367,3.8366,0,3.8233,3.8276,3.8321,3.833,3.8339,3.836,3.8365,3.8374,3.8388,3.8406,3.8415,3.8437,3.8448,3.8465,3.8453,3.8425,3.8504,3.8463,3.85,3.85,3.8516,3.8515,3.8635,3.8529,3.8528,3.8528,3.8528,0,3.8329,3.8371,3.8357,3.8385,3.843,3.8415,3.846,3.8461,3.8469,3.8496,3.8472,3.8497,3.8481,3.8505,3.8496,3.8537,3.8543,3.854,3.8536,3.854,3.854,3.8546,3.854,3.8531,3.8531,3.853,3.8529,0,3.8424,3.8417,3.8464,3.8469,3.8471,3.8504,3.8507,3.8532,3.8528,3.8562,3.8569,3.8562,3.8589,3.8579,3.8608,3.8601,3.8653,3.8644,3.8649,3.8646,3.8683,3.8678,3.8809,3.8824,3.871,3.8712,3.8713,0,3.8485,3.8516,3.8524,3.854,3.8546,3.8573,3.8587,3.8573,3.8589,3.8603,3.8626,3.865,3.8668,3.8712,3.8709,3.873,3.872,3.8764,3.8723,3.8725,3.8717,3.8714,3.8716,3.8772,3.8773,3.8774,3.8775,0,3.8592,3.8586,3.8609,3.8629,3.8647,3.8662,3.8676,3.869,3.8676,3.8695,3.8722,3.8736,3.8764,3.8788,3.8807,3.881,3.879,3.8788,3.8797,3.8801,3.8801,3.8798,3.8669,3.8785,3.8784,3.8783,3.8783,3.8782,3.867,3.8696,3.8704,3.8729,3.8737,3.875,3.8773,3.8772,3.8794,3.8815,3.8806,3.8836,3.8844,3.8867,3.8873,3.8896,3.8879,3.8893,3.8896,3.8899,3.8902,3.88,3.89,3.8899,3.8899,3.8899,3.8899,0,3.8774,3.8777,3.8801,3.8819,3.8838,3.8818,3.8831,3.8848,3.8875,3.8885,3.8903,3.8933,3.8955,3.8954,3.8975,3.8993,3.8984,3.8998,3.8995,3.8996,3.8918,3.8907,3.9005,3.9005,3.9005,3.9005,3.9005,3.9005,3.883,3.8871,3.8866,3.8911,3.8914,3.8943,3.8952,3.8963,3.897,3.9004,3.9023,3.9022,3.9027,3.9047,3.9067,3.9066,3.9073,3.9091,3.9086,3.9013,3.9002,3.8992,3.8981,3.9093,3.9093,3.9162,3.9162,3.9163]}]]